Temp
18 18 18 18 18 18 18 19 19 19 19 19 19 19 19 19 19 19 19 20 20 20 20 20 20 20 21 21 21 21 21 22 23 21 20 18 17 18 18 19 20 21 21 22 22 23 24 25 25 24 25 25 24 23 22 22 22 22 24 24 23 24 23 22 23 22 21 21 18 17 17 18 18 16 15 14 14 15 15 15 15 15 15 15 14 12 10 10
18 18 18 18 18 18 19 19 19 19 19 19 19 19 19 19 19 20 20 20 20 20 20 20 21 21 21 21 21 21 21 22 23 22 20 18 18 19 19 20 20 21 21 22 23 24 24 25 25 24 25 25 24 23 23 22 22 22 24 25 23 23 21 20 22 20 20 21 19 18 17 18 18 17 15 15 16 16 15 15 15 15 15 15 14 12 11 10
18 18 18 18 18 19 19 19 19 19 19 19 19 19 19 19 20 20 20 20 20 20 20 21 21 21 21 21 22 21 20 23 23 21 20 19 19 20 20 20 20 21 21 21 22 23 23 24 24 24 25 25 23 23 23 22 21 22 23 24 23 21 20 19 20 19 18 19 19 18 17 17 17 17 15 15 17 17 16 16 16 16 15 16 16 14 12 11
18 18 18 18 19 19 19 19 19 19 19 19 19 19 20 20 20 20 20 20 20 20 21 21 21 21 21 21 22 21 20 23 22 19 19 19 19 20 20 20 20 20 21 21 21 22 22 23 24 24 24 24 23 23 23 21 21 22 22 22 21 20 21 19 18 18 17 18 19 18 17 17 17 16 15 15 16 17 17 18 18 17 17 17 17 16 14 12
18 19 19 19 19 19 19 19 19 19 19 19 19 19 20 20 20 20 20 20 20 20 20 21 21 21 21 21 21 20 21 22 20 19 19 19 19 20 20 20 20 21 21 21 22 22 23 24 24 24 24 24 23 23 22 20 20 21 20 19 19 20 20 18 17 16 16 17 18 17 17 17 17 15 15 16 16 17 19 18 18 18 18 18 18 18 15 13
18 19 19 19 19 19 19 19 19 19 19 19 19 19 20 20 20 20 20 20 20 20 20 21 21 21 21 21 20 21 22 21 19 18 18 18 20 20 20 20 20 21 21 21 22 23 24 24 24 24 24 23 23 22 21 20 20 21 20 18 18 18 18 17 16 14 14 16 17 17 17 16 16 15 16 16 16 18 18 17 16 17 16 16 16 17 15 14
18 18 19 19 19 19 19 19 19 19 19 19 19 19 20 20 20 20 20 20 20 20 21 21 22 21 21 21 21 22 22 20 19 18 18 18 20 20 20 20 21 21 21 22 23 24 24 24 24 24 24 23 22 21 20 20 20 21 20 18 17 17 16 16 15 13 14 15 16 15 15 15 16 16 16 15 16 17 17 17 15 15 14 14 15 15 15 14
18 18 19 19 19 19 19 19 19 19 19 19 19 19 19 20 20 20 20 20 20 20 21 21 22 22 21 21 22 23 21 19 18 17 18 19 19 20 20 20 20 21 21 21 22 23 23 24 24 23 23 21 21 20 19 20 21 20 19 18 17 16 15 15 14 14 14 14 14 14 15 16 16 16 14 14 16 17 17 17 16 14 14 14 14 14 15 15
18 18 19 19 19 19 19 19 19 19 19 19 19 19 20 20 20 20 20 20 20 21 21 21 22 21 21 21 22 23 20 18 17 17 18 19 19 20 20 20 20 21 21 21 21 23 23 23 22 22 22 21 20 20 18 19 20 18 18 18 17 16 15 15 15 14 14 15 14 14 15 16 16 14 14 16 16 17 17 16 16 14 13 14 14 14 15 15
19 19 19 19 19 19 19 19 19 19 19 19 20 20 20 20 20 20 20 20 20 21 21 21 21 21 21 21 23 23 19 17 17 17 17 18 19 20 20 20 20 21 22 21 21 22 22 22 22 22 22 20 20 18 18 18 18 17 17 18 17 17 16 15 15 15 15 15 14 14 15 16 15 12 15 18 16 15 15 15 15 14 13 14 14 14 15 15
19 19 19 19 19 19 19 19 19 19 19 19 20 20 20 20 20 20 20 20 20 21 21 21 21 21 22 22 23 21 17 17 17 16 17 18 19 19 19 19 20 21 21 21 20 19 21 21 21 21 21 20 19 18 17 16 16 17 17 17 17 17 16 16 16 15 15 15 14 14 14 15 14 12 15 17 15 14 15 15 15 14 14 14 14 14 14 14
19 19 19 19 19 19 19 19 19 19 19 20 20 20 20 20 20 20 20 20 20 20 21 21 21 21 23 23 21 19 17 17 17 16 17 17 18 18 19 19 19 20 21 21 19 18 18 19 20 20 19 20 19 18 17 15 16 17 17 18 18 18 17 16 16 15 15 15 14 14 15 16 14 13 17 17 15 14 14 15 15 14 14 14 14 14 14 14
18 19 19 19 19 19 19 19 19 19 20 20 20 20 20 20 20 20 20 20 20 20 20 21 21 21 22 22 18 17 17 17 17 17 17 17 18 18 18 18 19 19 19 20 18 18 18 18 20 19 18 19 19 17 16 16 17 17 17 18 19 20 18 17 16 15 15 15 14 14 17 20 17 15 18 17 15 14 14 15 16 16 15 15 15 14 14 14
19 19 19 19 19 20 19 19 19 19 20 20 20 20 20 20 20 20 20 20 20 21 21 21 21 21 22 20 18 17 17 17 17 17 17 18 18 18 18 18 18 18 18 18 17 17 18 18 20 19 17 18 17 16 16 17 17 18 18 18 20 21 19 16 15 15 15 14 14 14 16 20 20 19 18 16 15 15 15 16 17 17 16 15 15 14 14 15
19 19 19 19 19 20 20 19 19 19 19 20 20 20 20 20 20 20 20 20 20 21 21 21 21 22 22 19 18 18 17 18 17 16 17 17 18 19 19 18 18 18 18 18 18 18 18 19 20 19 17 16 16 17 19 19 19 19 19 19 21 21 19 17 15 15 16 15 14 15 16 19 21 20 18 16 16 15 15 16 16 17 17 16 16 15 15 15
19 19 19 19 19 20 20 20 19 19 19 19 19 19 20 20 20 20 20 20 20 21 21 21 21 22 22 20 18 18 18 18 17 16 17 17 18 19 19 19 18 19 18 18 18 18 19 19 18 17 17 17 18 19 21 21 20 20 20 20 20 20 20 19 15 14 15 15 14 15 15 18 19 19 18 16 16 15 16 16 16 16 16 16 16 15 15 15
19 19 19 19 19 20 20 20 20 19 19 19 19 19 20 20 20 20 21 20 21 20 21 21 21 22 21 19 18 19 18 17 17 16 16 17 17 17 18 20 20 20 20 19 19 19 20 19 16 17 19 19 20 20 21 21 21 21 20 20 20 19 19 19 17 14 14 14 15 15 15 16 18 19 19 18 17 16 16 16 16 16 16 16 16 15 15 15
19 19 19 19 19 20 20 20 19 19 19 19 19 19 20 20 20 20 20 20 20 20 21 21 21 22 20 19 19 18 18 17 16 16 17 17 17 17 18 20 20 20 21 20 20 20 21 20 18 20 21 21 21 21 20 20 20 20 20 20 20 19 19 20 18 14 14 15 14 15 15 16 18 19 19 20 19 18 17 16 16 16 16 16 16 16 16 15
19 19 19 19 19 19 20 20 19 19 20 19 20 20 20 20 20 20 19 19 20 20 21 19 19 20 20 19 19 18 17 16 16 17 17 17 17 17 18 19 20 21 21 21 21 20 20 20 20 21 22 21 20 20 19 19 18 18 18 17 18 18 19 20 18 14 13 14 14 16 16 17 18 18 19 19 19 18 17 16 16 16 16 16 16 16 16 16
19 19 19 19 19 19 19 19 20 20 20 20 20 20 21 21 21 21 19 17 17 17 17 17 17 18 19 18 18 17 17 17 17 18 17 16 17 18 19 20 20 21 21 20 21 18 17 20 22 21 21 20 18 18 18 17 17 17 17 17 17 17 18 19 18 13 12 13 15 17 16 17 17 18 19 19 18 17 17 16 16 16 16 16 16 16 16 16
18 18 19 19 19 19 20 20 20 20 20 20 20 20 21 21 21 21 18 16 15 14 15 16 16 17 17 17 17 16 17 18 18 19 17 16 17 18 21 21 21 22 20 18 18 17 16 21 21 18 18 17 16 16 16 16 16 16 17 17 17 17 18 19 16 13 12 12 15 17 16 16 17 18 19 19 18 17 17 17 16 17 17 17 17 16 17 17
18 19 19 19 19 20 20 20 20 20 20 19 20 21 20 18 18 18 17 18 16 14 16 16 16 17 16 16 15 14 17 19 19 19 17 17 19 19 20 21 21 22 19 18 19 19 20 21 18 16 16 16 15 15 15 15 15 16 17 17 18 18 18 18 15 12 13 12 14 16 14 15 17 18 19 18 17 17 16 16 16 16 17 17 17 17 17 17
19 19 19 19 19 20 20 20 20 20 20 19 19 19 18 17 17 17 17 20 18 16 17 17 17 18 17 16 15 15 18 19 19 19 16 16 20 18 18 21 21 20 20 20 20 20 21 19 15 15 15 15 15 14 14 15 15 16 17 17 18 18 17 17 15 13 14 14 14 14 13 14 17 18 18 17 16 16 14 14 14 14 16 17 17 16 16 16
19 19 19 20 20 20 20 20 20 20 20 19 19 18 17 17 17 17 18 20 19 17 16 16 16 18 17 16 15 16 18 18 17 18 15 16 19 17 17 19 19 20 20 19 19 20 20 16 13 14 14 15 15 14 14 16 17 18 17 17 17 17 16 16 15 14 15 15 12 13 15 17 18 18 18 16 15 15 15 15 15 14 15 15 15 15 16 16
19 20 20 20 20 20 20 20 20 20 19 19 18 18 18 18 17 17 18 20 20 18 16 15 16 17 16 15 16 16 17 17 16 16 14 15 16 17 17 16 17 21 19 17 17 19 18 13 12 13 14 15 15 15 16 16 17 19 18 16 16 16 15 14 15 14 16 16 12 13 16 19 19 19 19 17 16 16 16 15 16 16 16 15 15 16 17 16
19 20 20 20 21 21 21 21 20 19 19 18 18 18 18 18 17 17 18 20 21 19 17 17 17 17 15 16 16 16 17 17 15 14 14 13 13 15 17 16 17 18 17 16 18 18 15 11 11 13 14 14 14 15 16 15 17 18 16 14 14 14 13 14 14 13 16 17 14 13 15 17 19 20 20 18 17 18 16 16 17 17 17 17 16 17 16 15
20 20 20 21 21 21 21 21 20 20 19 18 18 18 17 17 17 17 19 21 20 19 18 18 17 16 16 16 16 17 18 18 15 14 13 13 13 14 17 18 18 17 15 16 18 16 13 11 11 13 14 15 15 16 16 15 16 16 13 11 13 13 13 13 13 13 15 16 15 14 14 15 17 19 18 17 18 18 17 17 18 18 18 17 17 16 15 15
20 20 21 21 21 21 21 21 20 19 19 18 18 17 17 17 17 18 19 20 19 18 18 18 16 15 16 16 15 17 17 17 17 16 13 12 14 15 17 18 18 17 15 16 19 16 13 13 13 13 14 15 16 16 15 15 16 14 11 11 12 12 12 12 12 14 14 14 15 15 14 15 17 19 17 17 18 18 18 18 18 18 18 17 16 16 15 14
20 20 21 21 21 21 21 20 20 19 18 18 17 17 17 16 17 19 21 20 19 18 17 17 16 16 17 17 16 16 16 16 17 16 14 13 14 15 16 16 16 16 15 15 18 16 12 12 12 13 15 15 15 13 13 14 14 12 10 11 11 10 11 12 12 14 14 13 16 16 15 15 17 19 18 17 18 18 18 18 17 17 17 16 15 14 14 14
20 20 20 21 21 21 21 20 19 18 18 18 17 17 16 17 18 20 20 19 19 18 17 17 17 17 17 18 18 17 16 16 16 15 15 15 14 14 13 12 13 15 15 15 15 14 11 10 10 12 13 13 13 11 11 12 12 11 11 12 12 12 12 12 13 14 14 14 15 14 14 15 15 19 20 17 17 17 17 17 15 15 15 14 14 14 13 13
20 20 20 21 21 20 20 20 18 18 18 17 17 17 17 19 20 20 19 18 18 18 18 18 17 16 16 17 18 17 17 16 15 16 17 16 15 16 15 14 15 16 17 16 15 13 11 11 12 11 10 11 12 12 10 10 10 11 12 14 15 15 14 14 14 13 14 16 15 13 13 14 14 17 19 18 16 15 15 14 14 14 14 14 13 13 13 12
20 20 20 21 20 20 20 19 18 17 17 17 17 18 19 20 20 21 20 18 18 19 18 16 16 15 15 15 16 16 15 16 15 15 16 16 17 17 17 17 18 17 19 19 17 16 14 12 12 10 9 10 12 14 12 11 11 12 14 15 16 17 16 15 15 15 16 16 13 12 13 13 15 17 18 17 15 14 14 13 13 13 13 13 13 13 13 12
19 19 20 20 20 20 19 18 17 17 17 17 18 20 21 20 20 19 19 19 18 17 15 14 15 14 14 15 16 14 13 15 15 14 14 14 16 17 15 14 15 16 18 18 18 18 16 13 11 11 11 10 11 15 15 14 13 14 15 16 15 16 16 15 16 17 17 15 13 12 12 13 16 17 16 15 14 14 14 13 13 13 13 13 13 13 12 12
19 19 19 19 19 19 18 18 17 17 17 18 19 21 20 20 19 17 18 20 17 15 14 13 14 14 14 16 15 13 14 15 14 14 15 15 17 19 16 13 13 15 17 17 18 18 17 16 13 12 12 10 11 13 13 13 15 15 15 15 15 15 15 14 15 16 16 15 14 12 12 14 16 16 15 14 14 14 14 13 13 14 13 13 13 13 12 12
18 18 18 19 18 18 18 18 17 18 18 19 20 21 20 20 20 19 19 18 16 15 15 13 13 16 17 16 14 12 14 16 14 15 17 17 19 19 18 15 13 14 16 17 18 17 18 18 13 10 10 10 11 11 10 11 14 14 13 14 14 15 15 15 15 15 13 13 13 12 13 16 18 17 16 14 14 14 14 13 14 14 13 13 12 12 12 11
18 18 18 18 18 18 17 17 18 18 19 20 20 20 20 19 19 19 17 15 15 15 16 15 15 18 20 18 16 13 13 14 15 17 17 18 18 17 16 14 12 13 14 16 17 17 18 17 12 9 10 9 9 10 9 11 14 13 14 14 13 13 13 14 14 14 12 11 13 14 15 17 18 17 16 15 14 14 13 13 13 13 13 12 12 11 11 11
17 18 18 17 17 17 17 17 18 18 19 20 20 19 19 17 15 15 14 13 13 13 16 19 18 18 19 19 18 15 13 14 15 16 18 18 17 15 15 13 10 11 12 13 16 16 16 16 13 10 11 9 7 9 9 9 11 13 14 13 12 12 12 13 13 13 13 13 14 15 15 15 16 16 16 15 14 13 13 13 13 13 12 12 11 11 10 10
17 18 18 17 17 17 17 17 18 19 19 20 20 19 17 15 13 12 11 11 12 13 16 19 18 17 18 18 18 16 14 16 17 17 18 19 17 14 14 13 10 10 10 10 14 15 14 15 13 10 11 10 8 9 11 9 9 11 12 11 12 12 13 13 12 12 12 12 13 15 14 14 15 15 15 14 13 13 13 12 12 12 12 11 10 10 10 9
17 18 18 17 17 17 17 17 18 19 20 20 21 19 16 14 11 9 8 9 11 14 16 17 16 16 17 16 17 16 14 15 17 17 17 18 17 14 13 13 11 9 9 10 13 15 14 15 14 11 10 10 10 12 14 12 10 10 11 11 12 12 12 13 12 12 12 12 12 13 13 14 15 14 14 13 13 13 12 12 12 11 11 10 10 9 9 9
17 19 19 17 17 17 17 18 19 20 20 19 19 18 14 13 11 7 6 8 11 13 15 16 16 16 17 15 15 15 14 15 15 16 17 16 16 14 11 11 12 10 9 10 11 14 14 15 15 12 10 12 13 13 14 14 13 11 12 12 12 12 12 12 11 12 12 12 12 12 12 14 15 14 13 13 13 13 12 11 11 11 10 9 9 9 9 8
17 19 19 16 17 17 17 19 18 17 19 18 17 15 13 12 11 9 6 6 9 11 12 13 15 15 16 15 15 15 15 15 15 16 17 16 16 15 10 8 10 10 10 11 12 13 14 14 15 14 13 15 14 11 10 12 13 13 13 13 13 13 12 11 11 11 10 11 11 10 11 13 14 14 14 14 13 13 12 11 10 10 9 9 9 8 8 8
18 19 18 16 17 17 18 19 15 14 18 17 14 12 11 10 11 10 8 7 9 11 11 11 13 14 14 15 15 14 14 16 16 15 16 16 15 14 8 5 7 9 10 12 12 11 11 13 13 14 15 15 11 8 8 9 11 12 12 13 13 13 12 11 11 11 10 9 10 9 9 11 14 15 14 14 14 13 11 10 9 9 9 8 8 8 7 7
19 19 17 16 17 17 18 18 15 15 17 13 10 10 9 9 11 10 9 10 10 11 11 12 13 13 13 13 13 14 14 14 16 15 15 15 13 9 6 5 6 8 10 12 12 10 10 12 13 13 16 14 9 8 8 8 9 11 12 12 12 11 10 10 10 9 9 9 9 9 10 11 13 14 14 14 13 11 10 9 8 8 8 8 7 7 7 7
17 17 17 17 17 17 18 18 17 18 16 12 11 11 9 9 10 10 11 12 11 11 13 13 13 12 12 12 12 14 14 14 15 15 14 15 11 6 4 5 5 9 10 9 10 10 11 14 14 13 15 14 12 11 11 9 10 12 13 11 10 9 7 7 8 8 8 9 10 9 9 12 14 13 13 13 12 10 9 8 8 8 7 7 7 7 7 7
17 17 17 17 17 17 16 15 16 18 16 14 14 13 11 10 9 9 10 11 10 11 12 12 11 11 11 11 11 12 13 13 15 13 12 13 11 6 4 4 5 8 8 5 6 8 10 13 13 12 13 13 14 14 13 11 12 13 12 10 8 8 7 7 8 8 8 9 10 9 9 11 13 13 12 12 10 9 8 7 7 7 6 6 6 6 6 6
18 18 17 17 17 16 13 11 14 17 16 15 15 13 13 14 10 7 9 10 10 10 11 11 10 11 11 11 12 13 13 13 13 12 11 12 12 8 4 4 6 6 5 4 5 8 10 11 12 12 13 13 13 13 12 12 11 11 12 9 7 6 6 6 8 9 9 9 9 10 10 10 10 11 10 10 8 7 6 7 7 6 6 6 5 6 6 5
17 17 16 17 17 16 15 13 14 16 14 15 16 14 13 15 13 10 8 9 9 9 10 11 10 11 12 12 13 14 13 13 12 12 10 10 11 9 5 4 6 5 5 5 6 8 10 11 10 10 11 11 12 12 12 11 10 10 11 9 8 6 5 5 7 8 9 8 8 10 10 8 8 9 9 8 7 6 6 6 6 5 5 5 5 5 4 4
15 16 13 13 15 17 16 14 13 14 14 14 14 13 13 14 14 13 11 9 9 9 11 12 11 11 13 12 13 14 13 13 13 11 10 9 10 10 8 6 6 5 6 7 7 7 9 10 9 8 9 10 10 11 11 11 10 10 10 9 9 7 5 5 6 8 8 7 7 9 8 7 8 8 7 6 5 5 6 6 5 5 4 4 4 4 4 4
14 15 12 10 13 14 12 11 11 13 14 14 14 13 13 14 15 14 12 11 11 10 10 13 13 12 13 12 12 13 13 13 12 11 10 9 9 10 10 9 7 6 7 9 8 6 8 10 8 6 7 9 10 11 10 10 10 9 9 9 9 8 7 7 7 8 8 7 8 8 7 7 8 7 6 6 6 6 5 5 5 4 4 4 4 4 3 3
15 16 13 12 13 12 10 10 12 14 14 13 14 14 13 14 14 13 12 12 13 12 10 12 13 12 12 11 11 13 12 11 11 10 9 9 9 10 11 10 9 8 7 8 8 6 7 9 8 6 8 10 10 9 9 9 10 9 9 9 9 8 8 8 8 8 7 7 7 7 6 7 8 6 5 5 6 5 4 4 4 3 3 3 3 3 3 2
13 13 14 16 16 12 11 13 13 15 16 15 15 14 13 14 13 12 12 11 11 12 11 11 12 11 11 11 11 12 11 9 9 9 8 9 9 9 10 10 9 8 8 7 6 6 7 9 8 8 9 10 10 9 10 10 9 8 9 9 8 8 8 8 8 7 7 6 6 6 6 6 6 6 5 5 5 4 3 3 3 3 3 3 3 3 2 2
12 12 13 16 16 13 12 14 14 15 16 15 14 13 13 12 11 11 12 11 8 9 9 9 10 11 12 12 11 9 8 6 7 7 7 7 8 8 8 8 7 8 8 7 6 6 7 8 9 9 9 11 11 10 11 10 8 8 8 8 7 7 7 7 7 7 7 6 6 5 5 5 5 5 4 4 4 3 3 2 2 3 3 3 3 2 1 1
Height
827 827 827 827 827 827 827 827 827 827 827 827 827 826 826 826 825 825 825 824 824 823 822 822 821 821 820 820 819 819 818 817 817 816 817 821 822 819 816 814 813 811 811 809 809 807 806 804 804 804 802 802 804 806 808 808 808 808 807 807 804 803 810 813 811 814 816 818 826 830 830 830 832 837 839 841 841 839 838 838 838 838 838 839 840 842 844 844
828 828 828 828 828 828 828 828 828 827 827 827 826 826 826 826 826 826 825 824 824 823 823 822 821 821 820 819 819 818 818 817 816 817 820 822 820 817 815 814 813 812 811 810 809 808 806 804 804 803 802 803 806 806 808 809 809 809 807 804 806 810 815 817 815 817 819 819 824 828 830 829 829 833 838 839 835 835 837 835 835 836 835 836 838 840 842 843
829 829 829 829 829 829 828 828 828 828 827 827 827 826 826 826 826 826 825 825 824 824 823 822 822 820 819 819 817 817 818 816 816 820 821 820 817 816 815 813 813 812 811 810 810 809 807 806 805 804 803 805 807 807 808 811 811 811 810 806 810 816 818 820 820 823 824 822 824 828 831 831 831 833 837 838 832 831 834 831 830 832 832 831 833 836 839 841
830 830 830 830 830 830 829 829 828 828 827 827 827 826 826 826 826 826 825 825 824 824 823 822 821 820 819 817 815 817 817 816 820 824 822 819 817 816 814 814 813 812 811 811 811 810 809 807 805 804 805 807 809 809 810 815 814 812 814 814 817 818 818 824 825 827 828 826 825 828 833 833 831 835 836 836 834 829 826 824 824 825 826 825 827 830 835 838
830 831 831 831 831 830 830 830 829 828 828 827 827 827 827 827 826 826 826 825 824 824 823 822 821 820 819 817 816 816 817 820 825 825 822 819 817 815 814 814 813 812 812 811 811 810 809 807 806 806 806 808 810 811 814 817 816 816 820 822 822 820 822 828 829 832 833 830 829 831 834 833 832 836 835 835 833 825 820 821 821 822 823 824 824 826 831 836
831 831 832 831 831 831 830 830 829 829 828 828 828 828 827 827 827 826 826 825 824 824 823 822 821 820 820 818 817 816 818 825 828 825 823 820 817 816 814 814 813 813 812 812 811 809 808 806 806 808 808 810 812 814 817 818 817 818 823 826 826 826 828 830 833 837 837 833 832 833 833 833 835 834 831 832 829 822 820 823 824 824 826 827 827 827 830 833
832 832 832 832 832 832 831 830 830 829 829 828 828 828 828 827 827 827 826 825 825 824 823 822 820 819 819 819 818 817 820 827 829 826 824 820 818 816 815 815 814 814 813 812 811 809 808 807 807 809 810 813 815 817 821 819 817 818 823 828 830 831 832 834 837 839 839 836 835 836 836 835 835 831 829 829 824 821 822 823 825 826 827 829 829 829 829 831
833 833 833 833 833 832 832 830 830 830 829 829 829 829 828 828 827 827 826 826 825 824 823 821 819 819 819 819 818 818 822 828 829 826 825 822 820 818 816 816 815 815 815 814 813 811 810 809 810 811 813 817 818 819 823 820 818 821 825 829 831 833 834 837 838 839 839 838 838 838 837 833 830 831 831 826 821 820 821 821 824 826 827 828 828 828 828 829
834 834 834 834 834 833 832 831 831 830 830 830 830 829 829 828 828 827 827 826 825 824 822 821 819 818 818 819 818 820 827 830 829 827 825 823 821 819 818 817 816 816 815 815 814 812 811 812 813 813 814 819 819 822 826 823 824 827 828 828 830 833 835 837 837 839 839 837 839 838 835 831 830 834 828 818 817 818 819 820 821 824 826 825 825 826 827 827
834 835 835 835 834 833 832 832 831 831 831 831 830 830 829 829 828 827 827 826 824 823 822 821 820 818 819 819 818 822 830 830 829 828 826 825 823 821 819 818 818 817 817 817 815 814 813 814 814 813 815 819 821 825 827 826 829 830 829 829 830 832 833 836 835 836 837 835 838 837 833 829 831 838 825 811 816 818 819 821 821 823 824 823 823 824 825 825
835 835 835 835 834 834 833 832 832 831 831 831 831 830 830 829 828 827 827 825 825 823 822 821 820 819 819 819 819 825 831 830 830 829 827 826 824 822 821 819 819 819 818 818 818 817 816 817 816 815 817 820 823 828 829 832 832 829 830 829 829 830 831 833 833 835 835 834 836 836 832 827 832 837 822 811 816 818 819 820 820 822 821 821 821 821 823 823
836 836 835 835 835 834 834 833 832 832 832 831 831 830 830 829 828 827 826 826 825 823 822 821 820 820 819 820 824 829 831 831 830 829 828 827 825 823 822 822 821 820 819 819 820 820 819 819 818 819 821 821 825 830 831 833 832 829 829 828 826 827 829 831 831 834 835 834 836 836 825 817 827 828 812 810 816 817 819 818 817 819 818 819 819 820 821 821
837 836 836 835 835 835 834 834 833 832 832 831 831 830 830 829 828 827 826 826 825 824 823 821 821 820 820 824 830 832 831 831 830 829 828 827 826 825 824 824 822 822 821 820 821 821 820 820 818 820 823 822 827 831 831 831 831 830 829 827 823 819 824 830 831 834 836 835 836 837 822 805 811 815 806 809 814 816 817 815 814 814 814 816 817 818 819 820
837 836 836 836 835 835 834 834 833 833 832 832 831 830 830 830 828 827 827 826 825 824 823 822 822 821 822 828 832 832 831 831 830 830 829 827 827 827 826 825 824 823 823 822 823 822 821 821 819 821 825 825 828 832 831 829 828 826 827 827 820 815 821 829 832 832 833 836 836 838 830 806 799 803 804 809 812 814 814 810 810 809 810 813 814 816 817 817
837 836 836 836 836 835 835 834 834 833 833 832 831 831 830 829 828 828 827 826 825 824 823 822 822 821 824 830 832 831 832 831 831 831 829 828 827 827 826 826 825 824 824 824 823 823 822 822 820 822 827 829 830 829 824 823 824 822 824 822 816 816 821 826 833 833 831 835 836 837 830 808 796 798 803 808 810 811 811 808 808 807 808 809 811 813 813 814
837 836 836 836 836 835 835 834 834 834 833 832 832 831 830 829 828 828 827 826 825 825 823 823 822 821 825 830 832 831 832 831 831 831 829 829 828 827 827 826 826 825 824 824 823 823 822 821 824 826 828 828 826 823 818 816 818 818 820 820 818 821 821 822 832 836 834 835 835 835 830 813 802 800 802 807 808 808 808 806 806 806 807 807 809 810 811 811
837 837 836 836 836 835 835 834 834 833 833 832 832 831 830 829 828 827 827 826 825 825 824 823 823 822 826 831 831 831 832 833 832 831 830 829 828 828 827 825 825 824 823 823 822 822 821 822 827 826 823 822 820 820 819 816 815 815 818 819 818 823 824 822 828 835 836 836 834 833 831 818 804 799 799 801 803 804 805 804 804 805 806 806 807 808 809 809
838 837 837 836 836 836 835 834 834 833 833 832 832 831 830 829 828 828 827 825 825 825 823 824 823 826 832 832 831 833 833 833 832 831 830 829 828 827 827 825 824 823 822 822 821 821 820 821 824 822 819 819 818 820 824 825 825 825 825 825 822 823 823 819 823 833 835 834 832 830 826 813 801 797 796 794 796 798 800 802 803 804 805 805 806 807 807 808
838 838 837 837 836 836 835 834 834 833 833 832 831 831 829 828 828 828 827 825 826 827 827 829 828 831 835 833 833 834 833 833 832 831 830 829 828 827 826 825 823 822 821 821 820 821 823 822 821 819 816 819 822 824 828 830 832 833 832 834 832 828 824 817 821 834 837 835 831 825 820 809 799 797 795 792 793 796 799 802 803 804 804 805 805 805 806 807
838 838 838 837 837 836 835 834 833 833 832 831 831 830 829 828 828 828 828 830 833 836 835 835 834 834 833 833 834 833 832 832 831 830 830 829 827 827 825 823 822 821 822 824 823 825 829 824 818 819 820 824 828 830 831 832 834 835 835 836 833 831 825 816 822 836 840 838 827 818 817 809 800 796 793 791 793 798 800 801 802 803 803 803 804 805 805 806
839 839 838 838 837 836 835 834 833 832 831 830 830 830 830 830 831 831 833 837 839 839 838 837 836 835 834 835 835 834 833 831 830 830 830 829 828 826 823 822 823 820 823 830 828 828 830 823 821 826 828 830 834 835 835 836 837 837 836 834 831 828 822 815 824 836 839 839 825 815 818 810 799 794 789 789 794 797 798 799 801 800 801 802 802 804 804 805
839 839 838 838 837 836 835 834 833 832 831 830 830 830 831 832 833 833 833 836 839 839 838 838 837 835 836 836 835 835 834 830 829 829 830 829 826 826 824 821 822 821 825 829 826 825 822 821 829 834 833 835 838 839 839 839 839 838 834 833 829 824 821 819 829 837 838 838 825 817 822 812 796 791 788 791 794 797 799 800 801 801 801 801 801 803 804 804
839 838 839 838 837 837 836 835 834 833 832 832 831 831 832 833 833 834 833 832 837 839 838 837 836 835 835 836 836 835 833 831 831 829 831 829 825 828 828 823 822 824 825 823 824 825 819 824 835 837 837 837 839 841 841 840 838 835 832 831 826 822 825 826 829 834 832 831 825 823 827 812 793 791 790 793 796 798 803 803 803 804 802 801 802 804 804 804
839 839 839 838 837 837 836 836 835 834 834 833 833 833 833 834 833 834 833 832 835 838 838 838 838 836 835 836 837 835 832 833 833 831 832 831 828 830 829 828 828 825 825 826 830 827 824 833 841 840 840 837 837 841 841 837 831 826 826 829 826 824 830 829 828 831 823 823 831 827 816 798 788 791 790 794 800 799 801 802 803 804 803 803 803 803 803 803
840 839 839 838 838 837 837 836 835 835 835 834 834 834 834 834 834 834 834 834 835 836 838 839 837 837 837 837 836 836 834 834 835 834 835 834 832 831 831 834 831 824 827 833 833 826 828 842 845 841 842 838 838 839 836 835 829 821 822 828 830 830 835 834 832 832 819 817 830 830 815 794 784 786 785 790 797 795 798 801 799 799 800 802 802 800 801 804
841 840 839 838 838 837 836 835 836 835 834 834 835 834 834 834 834 834 834 835 835 836 838 838 837 838 837 837 836 836 835 834 836 836 836 836 835 835 833 832 831 830 833 835 832 829 836 847 846 842 841 839 841 836 831 836 832 824 829 836 837 837 839 837 836 836 824 815 822 828 824 807 788 781 782 788 792 791 796 798 795 795 797 798 800 800 802 805
841 840 840 839 838 838 836 835 836 835 834 835 835 835 835 835 835 834 836 840 837 836 838 836 837 838 837 837 836 835 835 834 836 837 837 837 836 836 833 829 830 833 837 835 830 831 840 847 847 844 841 839 838 832 829 835 833 829 839 845 840 840 841 838 838 836 828 821 819 822 824 816 799 785 784 790 791 790 793 794 793 793 794 796 798 801 804 807
842 841 840 839 839 838 837 836 836 835 835 835 835 836 835 835 835 833 839 847 842 837 837 836 837 838 836 837 836 836 836 834 834 835 837 838 836 836 833 830 831 832 837 838 830 831 839 843 843 843 841 835 831 831 832 835 833 835 845 846 841 844 842 839 840 832 827 828 819 815 820 816 800 785 786 791 789 791 792 790 792 792 793 797 799 803 806 808
842 841 840 840 839 838 838 837 836 836 836 835 835 836 834 835 835 833 841 850 843 837 839 837 837 838 836 836 836 837 837 835 835 835 837 838 836 836 834 832 834 834 836 836 830 832 840 843 842 840 837 833 833 838 839 836 836 841 848 847 845 847 842 841 839 829 831 832 817 811 817 815 800 782 783 790 788 791 792 789 794 796 797 802 803 806 807 807
842 841 841 840 839 839 837 837 837 836 836 836 835 835 835 834 834 839 849 850 842 839 839 836 837 839 838 836 835 836 837 836 837 836 835 836 836 836 838 838 838 836 835 836 833 835 844 848 846 843 839 837 839 843 845 843 844 846 845 841 839 839 838 837 832 829 831 823 814 818 818 818 811 786 778 790 792 792 793 795 800 802 803 806 806 807 807 808
842 842 841 840 840 839 838 838 837 836 837 836 835 835 834 834 836 845 853 847 840 840 838 838 842 842 842 842 839 836 836 837 838 838 834 834 835 833 834 836 834 832 828 828 833 836 843 845 842 844 846 843 842 842 846 849 848 847 840 833 828 824 828 830 828 832 828 812 815 825 822 822 819 794 779 787 795 797 800 804 807 806 805 806 806 806 807 808
843 842 841 841 840 839 839 839 838 838 837 836 836 834 835 841 841 842 845 842 842 843 842 845 846 845 847 848 844 842 842 841 840 841 839 837 835 830 832 831 830 833 825 819 826 829 834 839 840 846 849 846 842 836 840 845 846 843 834 828 825 817 816 821 819 818 812 809 821 827 825 823 810 792 784 788 798 805 806 807 807 807 807 807 807 807 807 808
843 843 842 841 840 840 840 839 838 838 837 837 837 833 838 848 848 845 843 841 845 848 849 852 849 850 852 846 844 848 848 844 841 843 844 842 837 831 837 840 837 838 831 823 824 821 825 837 842 844 844 846 844 832 828 833 835 834 828 826 827 822 824 825 816 808 804 810 822 826 829 820 799 790 792 795 802 806 805 806 806 806 808 807 806 807 807 808
843 843 842 841 841 840 840 839 839 839 838 838 836 837 846 851 849 852 848 842 847 852 854 856 851 851 852 845 847 852 847 844 845 844 841 839 833 827 833 842 843 840 835 830 827 824 826 830 834 838 840 845 846 837 836 836 830 828 830 831 829 826 830 828 818 814 811 810 818 828 827 811 795 795 797 799 803 804 804 806 805 805 807 807 807 807 808 809
844 843 843 842 841 841 840 840 839 839 838 838 837 842 850 848 843 847 848 845 850 852 852 857 854 846 843 844 851 855 850 845 845 842 836 833 829 826 829 839 844 842 838 832 828 828 824 821 834 846 845 847 845 842 848 842 830 831 833 832 830 826 826 825 819 819 823 824 823 824 815 795 785 788 793 798 803 803 805 804 804 805 805 806 807 808 808 809
844 844 843 842 842 841 841 840 839 840 839 839 842 845 846 847 846 847 852 855 856 855 850 850 850 841 834 837 845 853 855 850 845 838 833 831 831 833 836 842 848 847 843 838 831 831 825 821 838 849 845 848 849 847 851 844 834 835 832 829 833 834 831 829 824 821 830 833 818 807 803 790 782 786 791 797 800 801 804 803 802 803 803 805 808 808 810 810
845 844 843 843 842 841 841 840 840 840 838 839 846 848 847 851 855 855 859 861 860 860 852 844 844 843 838 837 839 848 853 850 846 840 832 830 834 839 840 846 855 853 851 849 837 836 836 828 833 843 842 849 855 852 850 850 846 837 832 834 836 837 835 833 832 828 825 822 806 796 800 798 794 794 792 795 800 801 801 802 802 803 804 807 808 809 811 811
845 844 844 843 843 842 841 841 840 839 839 842 845 848 851 855 861 864 865 865 863 860 853 845 845 846 845 843 841 847 852 846 841 840 834 829 834 842 842 846 857 857 857 858 845 839 843 834 831 842 844 846 855 850 842 849 853 844 840 842 838 837 833 829 834 833 826 822 810 799 801 801 798 795 794 798 802 802 802 804 805 806 807 809 810 811 811 811
845 844 844 843 843 842 841 841 841 839 841 845 843 846 854 859 865 871 872 870 866 859 852 850 852 850 849 849 847 848 853 849 842 841 839 833 834 844 847 846 855 859 859 859 849 841 843 837 832 840 846 845 846 840 830 836 849 851 846 842 840 841 836 830 833 834 830 827 818 809 807 801 794 795 799 802 804 804 805 807 807 809 812 813 814 814 813 813
845 844 843 844 843 842 842 841 841 840 843 848 846 849 859 862 866 875 877 873 868 861 855 853 854 853 849 851 851 850 852 851 847 844 840 838 838 844 853 853 852 858 860 859 854 845 842 839 832 835 844 839 832 831 826 824 834 841 839 837 839 839 837 837 834 831 830 826 819 817 811 798 793 799 802 802 803 804 806 809 811 813 815 817 817 816 815 815
846 845 844 844 843 843 843 841 844 848 846 848 851 855 862 865 866 872 877 877 871 866 864 861 857 856 853 852 853 854 853 848 847 845 840 840 839 841 858 864 857 858 859 855 853 848 843 840 833 832 832 824 824 837 840 833 830 831 829 829 830 831 836 840 833 830 836 833 827 828 821 804 795 798 800 801 803 804 807 812 815 817 818 818 817 818 817 815
846 847 845 844 843 843 842 844 853 856 849 851 859 863 867 869 868 870 874 876 872 868 869 867 862 859 857 855 854 855 855 848 845 846 843 841 841 846 862 872 867 863 859 851 851 855 853 846 839 833 824 822 835 847 847 844 839 835 833 831 830 831 835 837 833 833 841 840 837 839 832 813 797 796 800 801 802 805 811 816 818 819 819 818 818 818 817 816
846 846 845 845 844 844 844 848 855 855 852 861 869 870 872 871 868 870 871 870 869 868 867 864 863 862 860 859 858 856 856 852 844 844 844 842 848 862 871 873 871 865 859 853 851 857 857 846 840 834 819 823 843 849 847 850 844 836 834 834 836 840 843 844 842 844 846 842 837 836 828 809 796 798 801 801 804 810 815 819 820 820 819 820 820 819 817 814
847 846 846 846 845 845 846 850 852 850 855 865 867 867 873 873 870 869 868 866 867 867 864 861 863 864 863 864 863 858 857 854 845 844 847 846 855 872 876 874 872 864 860 861 859 860 855 838 836 837 824 821 831 834 838 844 839 830 829 837 844 849 857 859 853 852 851 839 831 834 825 804 796 799 800 802 808 815 819 821 822 822 821 821 820 818 816 814
848 848 848 847 846 847 851 855 853 851 856 862 861 864 868 869 872 873 869 868 870 868 864 864 867 867 866 866 865 860 860 857 851 851 855 853 858 872 876 875 874 867 867 874 872 866 857 842 840 843 837 830 826 824 829 834 833 828 830 843 853 854 858 858 849 847 844 833 830 835 825 807 801 805 806 808 814 819 823 824 823 824 824 823 821 818 816 814
849 849 850 848 848 850 856 861 857 853 857 858 858 863 863 861 869 876 874 870 871 872 869 868 869 868 866 866 862 857 857 858 857 856 858 856 856 867 876 875 873 872 874 877 874 867 859 850 846 843 839 835 830 828 832 835 837 834 831 843 855 859 862 860 850 843 838 836 834 828 822 817 814 813 814 816 822 827 828 826 825 825 825 824 822 819 816 817
850 852 854 853 852 852 856 860 858 856 859 859 857 862 862 859 863 871 874 872 872 874 870 868 870 866 863 864 860 854 855 858 859 860 863 862 858 864 874 875 872 873 875 874 871 867 859 851 850 849 843 839 836 834 834 836 840 838 836 842 850 858 866 864 854 841 837 844 838 821 822 830 824 818 820 824 831 834 831 829 828 827 827 826 822 819 818 817
853 855 860 860 857 855 855 859 861 860 861 861 860 863 863 860 860 863 869 873 874 874 869 864 867 865 861 863 861 857 855 854 855 859 863 865 863 861 865 870 872 872 872 868 867 868 860 851 856 861 853 846 844 839 836 838 839 839 840 841 842 852 863 864 855 844 843 849 841 827 831 836 828 825 828 832 836 835 832 830 829 829 828 825 822 820 819 816
857 857 862 863 861 861 864 867 867 863 862 862 862 864 864 861 860 862 867 870 869 871 870 863 861 863 862 863 864 860 858 856 858 862 864 866 867 862 857 861 867 869 867 864 866 871 863 850 859 869 860 848 841 837 838 842 841 841 843 841 840 845 852 853 850 845 844 846 840 835 837 834 829 832 836 837 837 835 833 832 831 830 828 825 822 819 817 816
855 854 859 861 861 866 870 869 866 861 861 863 860 862 865 862 861 864 867 867 863 866 871 866 862 865 866 866 865 861 860 863 864 865 866 866 865 861 856 855 859 865 867 864 867 872 865 854 858 866 857 842 839 842 843 842 839 839 840 841 842 843 844 845 845 844 846 847 842 841 841 834 830 836 840 839 837 836 835 834 832 831 829 825 821 818 817 817
854 854 855 854 858 866 867 865 865 859 856 859 859 862 865 864 866 867 867 870 870 868 870 869 866 867 867 866 864 860 863 869 867 865 868 868 864 862 860 859 861 864 866 868 871 871 866 858 855 858 850 836 837 844 838 835 841 843 840 841 844 845 845 846 846 846 848 849 846 843 841 836 834 838 840 839 839 840 838 837 835 831 827 823 820 819 819 818
855 855 855 853 856 865 865 861 862 859 857 861 864 866 867 868 872 871 866 870 876 874 874 872 870 867 862 860 862 865 870 873 872 871 872 870 868 866 865 866 868 866 865 869 873 872 870 862 852 854 850 834 830 836 831 832 842 843 840 844 847 847 848 848 848 848 846 846 847 846 843 840 840 842 841 840 840 841 841 839 837 831 826 823 822 823 823 820
Wind_Speed
9 8 8 8 8 8 7 6 6 5 4 3 3 3 3 2 1 2 5 6 7 4 4 6 5 7 10 10 9 5 5 5 12 20 17 14 20 20 16 12 11 9 6 6 5 6 6 3 2 3 3 1 1 1 1 2 2 3 3 4 3 2 2 3 3 3 2 1 6 8 9 8 5 6 4 1 7 10 8 8 9 9 11 12 6 6 6 5
8 8 8 7 7 6 5 5 5 5 4 3 3 2 3 3 1 1 3 6 8 7 7 7 8 10 12 13 10 5 4 3 9 19 15 18 22 18 12 9 8 6 5 6 6 6 6 5 3 3 3 1 1 1 1 2 3 3 3 4 2 4 3 4 5 5 3 2 5 7 8 8 3 4 5 4 8 9 11 11 11 13 13 15 13 11 10 8
7 7 7 6 6 4 4 4 4 4 4 3 2 2 3 3 2 0 1 3 6 7 8 8 10 13 15 17 10 5 5 4 7 14 16 22 22 16 11 7 5 5 4 5 6 7 7 6 4 4 3 0 1 1 1 2 3 1 2 4 3 4 3 5 5 5 4 3 3 6 6 7 2 2 5 5 9 9 11 11 10 13 13 14 16 17 15 12
6 6 6 5 4 3 4 4 4 5 5 4 2 2 2 3 2 1 2 2 4 6 7 8 11 13 16 18 8 5 5 5 5 10 18 23 22 16 10 6 5 5 4 3 5 5 5 5 3 3 2 0 1 0 1 4 3 1 2 3 5 3 2 5 5 6 4 4 0 4 4 6 4 2 5 6 9 9 10 11 11 10 10 11 12 17 18 15
5 6 5 4 4 3 4 4 5 5 5 4 3 3 2 2 2 2 3 4 6 8 9 10 11 12 14 16 5 5 4 4 3 11 19 24 22 14 8 6 4 5 5 4 6 6 6 5 3 2 2 0 1 1 2 5 3 1 2 3 5 3 2 4 4 5 3 3 0 4 3 3 2 4 8 10 10 8 4 2 6 7 6 7 6 10 16 15
5 5 5 5 5 4 4 5 6 5 5 4 4 4 2 2 2 3 4 5 7 8 9 10 11 10 9 13 8 1 3 0 5 13 20 23 20 13 7 6 4 6 7 6 7 7 5 5 4 2 1 1 3 2 4 4 3 1 2 3 4 4 3 3 3 3 3 2 1 1 1 1 3 8 9 13 16 12 5 2 1 3 3 4 5 6 11 13
7 7 7 6 4 4 5 5 6 5 4 5 5 4 4 4 3 4 4 3 4 5 7 9 10 7 3 7 6 3 3 5 8 13 19 22 18 12 8 7 6 6 7 6 7 6 5 4 2 1 1 1 3 3 4 3 1 2 2 3 3 3 2 2 3 2 1 2 1 2 3 4 9 9 5 11 16 14 12 6 3 2 1 2 4 7 10 12
9 9 7 5 3 4 6 6 5 4 4 6 7 7 6 6 6 6 5 5 5 6 8 10 11 6 1 2 3 3 7 5 9 13 17 19 16 13 9 8 7 5 5 6 7 7 5 4 3 2 1 3 2 3 3 3 1 3 3 3 2 2 3 3 2 2 0 2 2 3 6 9 10 7 8 15 17 14 14 11 7 6 6 7 8 9 10 11
9 8 5 4 3 5 7 7 5 3 4 5 7 6 6 5 5 5 6 7 6 8 9 10 11 6 1 1 4 0 5 4 9 12 14 17 16 14 11 9 8 5 5 7 6 6 4 3 5 3 2 4 1 2 3 3 2 4 3 3 2 3 3 3 2 2 1 2 1 6 9 10 5 4 11 16 13 9 8 10 8 8 9 10 10 11 11 11
6 6 4 3 4 6 7 6 5 3 2 3 4 3 5 5 4 4 6 8 8 8 10 9 9 7 1 2 5 1 3 2 8 12 11 15 16 15 14 11 9 7 6 8 9 9 6 4 5 3 3 4 2 2 3 3 1 2 2 2 2 3 3 3 2 2 2 3 2 7 11 10 1 1 9 6 2 2 3 6 7 7 10 10 10 10 11 12
5 4 3 4 4 6 7 6 4 2 0 1 2 3 5 6 5 4 6 8 7 7 10 8 6 7 2 2 3 1 3 2 5 11 10 12 17 17 16 12 9 7 6 8 10 10 7 6 5 2 1 2 2 3 2 1 0 1 2 2 3 4 4 4 3 1 3 3 0 8 15 13 4 3 12 6 5 5 4 6 7 8 9 9 10 9 9 11
4 3 3 4 4 5 6 6 4 2 1 1 1 3 6 7 5 5 6 6 6 6 9 7 3 4 2 3 4 3 3 3 3 8 10 8 14 17 16 13 10 9 6 7 7 6 5 3 3 1 2 0 2 2 3 3 2 3 3 4 4 6 5 4 3 1 2 1 3 10 13 10 10 10 12 6 6 4 5 7 7 8 8 7 8 7 7 9
2 3 3 3 4 5 5 6 5 3 2 3 3 4 7 6 5 6 6 5 5 5 7 7 5 2 2 3 5 2 3 6 3 7 9 5 8 11 13 13 13 13 11 10 8 5 5 3 1 4 3 1 2 2 4 5 3 4 4 4 3 5 4 4 2 2 3 1 4 7 8 4 10 15 8 6 7 5 5 7 7 7 7 6 6 6 7 8
2 1 2 2 3 4 5 5 5 4 3 4 4 5 5 5 5 6 5 4 4 3 5 7 6 3 2 3 2 1 3 5 6 7 8 6 4 3 6 9 10 11 11 11 8 6 6 5 6 7 3 3 4 3 4 5 4 3 2 1 2 3 2 6 3 2 2 1 2 3 5 6 3 9 9 7 7 6 6 8 8 8 6 6 6 6 7 8
2 1 1 1 2 3 5 6 5 4 4 4 4 3 3 4 6 6 5 5 3 2 4 5 4 1 3 4 2 1 4 2 5 8 8 8 6 3 3 4 5 6 7 6 6 5 3 2 2 4 3 2 3 4 3 4 3 2 2 2 1 4 1 5 4 1 2 2 2 2 5 9 8 1 8 7 6 7 8 10 9 10 8 7 6 6 7 7
2 1 1 1 2 3 4 5 5 4 5 4 3 2 3 4 6 7 6 5 3 2 3 2 3 2 1 4 2 1 3 2 5 8 7 7 7 5 5 3 1 1 2 2 3 3 1 1 1 0 2 2 3 3 4 4 3 2 2 5 4 5 4 0 3 2 1 1 4 5 5 10 7 0 5 7 8 8 9 11 10 10 8 7 6 6 6 7
2 1 1 1 2 3 4 5 4 4 4 4 3 3 3 4 6 10 7 6 5 2 2 3 3 2 1 3 2 1 3 4 6 7 6 7 5 5 6 4 2 3 3 2 3 2 1 1 1 1 3 3 2 3 5 4 2 0 1 5 4 4 6 4 1 3 2 2 5 7 9 14 14 10 10 7 8 9 10 10 9 8 6 5 5 5 6 6
2 1 1 1 3 4 4 5 5 6 6 5 5 5 6 7 7 9 7 5 6 4 1 4 2 1 1 2 1 2 3 4 7 6 6 7 5 4 5 3 3 5 5 5 4 2 2 1 3 2 2 3 1 2 4 4 4 5 5 6 5 5 7 7 1 2 1 4 7 9 11 18 20 15 14 11 8 9 9 9 7 5 4 3 3 4 5 5
2 1 2 2 4 4 4 5 6 6 7 7 6 8 9 7 4 3 9 6 2 2 2 3 2 1 1 2 1 3 3 4 6 5 5 8 6 5 5 5 5 5 6 4 1 0 3 2 4 4 2 0 2 2 3 3 3 6 5 5 7 7 7 8 2 4 3 6 9 10 11 17 20 15 14 13 9 7 7 6 5 3 2 2 2 3 3 4
2 1 2 4 4 5 5 6 7 7 8 9 8 9 7 3 3 1 8 9 4 2 2 2 3 1 1 2 4 6 5 4 3 3 6 9 7 4 5 6 6 5 3 2 2 2 2 4 4 2 3 2 3 3 1 1 2 4 4 5 8 7 8 8 1 4 2 4 8 9 11 17 20 17 14 10 4 3 5 3 1 1 0 0 1 1 2 3
3 3 4 4 4 4 6 7 8 9 8 8 6 5 3 2 2 1 3 4 3 3 3 3 3 2 2 3 5 7 4 4 3 1 7 9 5 4 2 2 5 3 1 0 2 0 2 5 2 4 4 4 4 3 2 1 1 3 5 6 7 7 8 5 2 3 2 1 7 9 11 17 19 17 12 5 2 2 2 2 2 2 2 1 1 1 2 2
4 5 5 5 4 4 5 6 7 7 4 1 1 1 2 2 1 1 0 1 3 2 2 1 2 0 2 1 4 6 3 3 2 2 9 10 4 2 3 3 5 3 1 2 4 2 4 3 3 5 4 5 5 2 1 1 3 4 5 6 6 4 5 3 3 4 3 2 7 9 9 15 19 14 7 1 3 2 2 1 1 2 2 2 3 2 2 3
5 6 6 5 4 3 4 4 6 6 5 4 3 2 2 2 2 1 3 1 2 1 1 1 1 1 2 1 4 6 4 2 1 3 11 11 2 1 4 4 4 4 3 3 3 5 5 1 5 4 3 4 3 2 2 2 4 6 5 5 6 4 4 3 2 1 5 6 8 10 9 13 14 7 1 3 3 3 2 1 1 2 2 1 2 1 2 3
6 6 6 5 4 3 3 3 4 6 7 6 5 4 2 2 1 1 3 2 1 1 1 2 1 2 2 0 4 5 3 2 1 3 11 9 3 1 3 2 4 5 2 1 3 7 5 3 4 3 2 2 2 2 4 4 4 6 7 6 7 5 4 5 4 8 11 6 4 8 9 7 4 4 5 4 3 3 3 3 3 4 4 3 3 3 4 3
6 6 6 5 4 3 2 1 1 2 4 4 3 3 2 1 1 2 2 2 1 2 1 1 2 1 2 2 4 3 1 1 1 4 8 7 4 2 1 1 3 3 2 2 4 7 3 2 2 3 3 3 3 4 5 4 6 5 6 3 4 5 5 8 9 10 9 2 2 4 8 3 4 6 5 6 5 5 5 5 6 6 6 5 4 2 2 3
6 6 6 6 5 4 3 1 1 4 3 1 1 2 2 2 2 2 2 3 2 2 1 2 2 0 1 2 3 2 2 1 2 3 4 4 3 2 2 1 2 2 2 0 3 3 1 3 2 2 3 4 4 6 4 4 6 5 1 2 2 2 5 8 8 6 6 6 0 1 5 4 2 5 3 6 5 6 7 6 6 6 5 4 1 4 7 9
5 5 6 6 6 5 2 1 4 5 3 1 1 1 1 2 2 1 2 3 2 0 1 1 1 2 1 2 3 3 3 1 1 1 3 4 2 2 3 1 1 0 1 2 4 1 4 3 3 2 4 5 5 5 4 6 5 4 2 2 1 3 7 7 6 5 5 7 4 3 3 6 6 4 4 6 4 5 7 7 7 5 3 3 4 7 9 10
5 5 6 6 6 6 5 4 5 3 3 4 3 2 3 3 3 2 2 3 1 0 1 1 1 1 1 1 2 2 3 3 2 1 2 3 2 2 4 3 3 2 2 3 5 0 3 3 5 4 4 5 3 1 3 5 5 1 3 1 3 4 7 6 6 6 4 6 4 5 4 5 5 1 5 4 4 4 5 5 5 2 3 5 6 9 11 11
6 6 6 7 6 6 6 6 4 3 5 6 2 2 5 5 4 2 2 3 0 1 1 0 1 1 2 2 2 0 1 1 2 2 1 1 1 1 2 2 2 3 2 6 7 2 2 0 1 3 4 3 2 4 2 3 3 1 2 2 4 5 6 5 5 5 3 5 4 3 3 3 7 4 3 3 2 4 3 4 5 6 8 9 9 11 11 10
6 6 6 7 6 5 6 6 4 4 5 4 2 5 7 5 3 2 3 2 1 1 0 1 1 2 5 4 1 1 1 0 2 2 2 2 1 2 1 1 1 4 4 6 6 2 3 2 1 2 2 2 3 2 1 0 1 1 2 5 5 6 5 4 4 3 3 4 2 4 1 2 5 4 3 3 3 5 4 5 8 9 10 10 9 10 11 10
7 7 7 8 6 5 6 3 3 5 4 3 5 7 6 2 2 3 2 1 1 1 1 0 1 2 4 3 1 1 1 1 2 4 2 1 2 4 3 1 1 3 5 5 4 4 4 2 2 1 2 1 1 1 2 1 0 1 4 6 6 4 4 3 3 3 4 3 3 4 0 3 5 4 2 4 6 8 7 7 9 10 10 10 10 10 10 9
7 7 7 7 6 5 4 2 4 4 3 5 6 5 3 2 2 2 1 0 1 2 1 1 2 3 4 2 2 2 3 1 2 3 2 2 3 2 1 2 2 3 4 1 1 3 4 2 3 3 0 2 3 3 3 3 3 4 5 5 6 5 3 4 3 3 4 0 4 3 2 3 8 7 5 7 10 10 8 8 8 9 9 10 10 10 9 9
7 8 8 7 6 5 3 3 4 3 3 6 5 3 3 3 2 1 1 1 1 2 2 1 2 2 3 3 1 2 1 1 2 1 1 2 2 1 2 3 3 3 4 5 6 4 1 2 4 3 2 2 4 4 1 2 3 3 3 4 5 5 6 7 5 5 6 0 5 3 3 5 8 4 5 10 11 8 8 8 6 6 8 10 10 9 9 10
7 7 7 6 5 5 4 4 3 4 4 4 3 3 3 4 2 1 0 2 2 1 1 1 3 2 2 1 2 3 1 1 2 3 2 2 2 2 1 3 2 2 4 5 5 3 3 1 3 3 1 2 4 3 2 3 3 2 2 3 5 4 5 7 6 6 8 5 1 2 0 5 4 2 8 10 10 8 7 6 5 5 8 9 9 9 10 10
5 6 5 5 5 5 4 4 4 4 4 3 3 4 4 3 2 1 1 2 2 2 1 1 2 4 2 2 2 2 1 1 2 3 3 2 3 4 2 2 1 1 3 4 2 1 5 3 2 1 1 1 2 1 2 4 4 0 1 2 3 3 4 6 8 7 6 7 4 3 3 5 3 4 10 10 9 7 7 7 8 9 9 10 9 10 11 10
5 5 4 5 6 5 5 4 4 3 3 3 3 4 3 2 2 2 2 2 1 4 5 2 2 3 2 1 2 2 1 1 3 4 2 2 2 2 2 3 2 1 2 3 3 2 5 3 4 3 1 1 1 2 1 3 2 1 1 2 1 2 4 6 8 3 2 6 5 4 5 6 5 2 9 9 6 7 11 11 11 12 12 12 11 11 12 11
4 4 3 5 6 5 4 5 4 2 2 3 3 3 1 1 2 2 2 2 1 2 5 4 1 2 3 2 1 2 1 2 2 3 2 1 0 1 2 2 2 2 3 3 2 1 4 5 3 3 1 2 2 2 0 1 3 2 2 3 3 1 1 3 5 3 4 7 5 5 7 7 6 2 5 5 7 11 13 13 13 13 13 13 12 12 13 14
3 2 2 4 6 5 4 4 3 1 2 3 3 2 0 1 1 2 2 2 1 1 3 3 1 2 2 3 2 2 2 3 2 2 4 2 0 1 1 2 2 2 3 2 2 1 3 6 1 1 0 4 2 3 2 2 1 2 3 3 3 3 3 3 3 4 6 7 7 6 6 7 7 3 2 6 10 13 14 13 13 13 14 14 14 15 16 16
2 2 1 3 6 5 3 3 2 2 3 3 3 1 1 1 2 2 2 2 2 2 2 1 1 1 1 3 4 2 1 3 4 4 3 2 1 2 2 1 1 1 1 2 3 2 2 4 2 1 2 3 3 3 2 2 3 1 3 2 1 2 4 3 2 4 6 7 8 6 4 4 3 3 6 8 10 12 12 12 12 13 14 14 14 14 15 15
2 2 0 4 6 3 2 3 2 2 2 2 2 1 1 1 2 3 2 2 1 1 2 2 1 2 2 1 2 2 1 2 4 3 1 1 2 2 3 3 1 2 0 1 3 3 2 4 4 0 2 1 2 2 1 2 2 2 3 3 2 2 2 3 3 3 5 7 7 7 6 3 1 4 5 7 10 11 11 12 12 12 14 14 14 14 15 15
2 2 1 5 5 2 2 2 0 1 1 1 1 1 1 1 1 2 2 1 1 0 1 3 3 3 3 3 2 1 2 4 3 3 2 1 1 2 3 3 3 2 1 2 2 3 2 4 6 4 4 4 1 3 4 5 3 2 3 3 3 3 2 5 5 2 1 5 4 6 9 5 2 1 3 7 10 11 12 13 13 13 15 15 14 16 16 16
2 2 2 6 6 3 3 1 2 1 2 1 1 1 1 1 1 1 2 1 1 0 0 2 2 2 3 3 2 1 2 5 3 2 3 2 1 3 3 3 4 2 2 2 0 1 2 4 6 8 8 4 4 5 3 4 3 2 3 2 3 3 3 6 7 2 1 3 2 4 9 6 2 1 3 8 11 11 12 14 14 14 15 15 16 17 18 16
2 1 3 6 6 3 3 1 1 0 0 1 0 1 1 1 0 1 1 2 1 0 1 2 1 2 2 2 3 2 1 3 4 3 3 2 2 3 3 3 3 2 2 2 1 2 0 3 5 7 8 1 6 5 2 2 1 1 2 2 1 2 2 4 5 4 4 6 4 6 9 4 3 3 5 12 13 12 12 14 16 15 14 15 17 18 18 18
1 0 2 7 7 3 2 1 1 1 1 1 1 1 1 1 0 1 1 1 1 1 2 2 0 1 1 1 2 3 1 2 3 1 2 3 2 3 3 3 3 2 2 2 2 2 2 3 3 6 7 2 2 1 1 1 2 1 1 1 1 1 1 1 3 2 4 7 6 7 8 3 1 4 12 15 14 14 14 15 16 16 15 16 17 17 17 18
0 0 0 4 7 3 1 1 2 2 1 0 1 0 0 1 1 1 1 0 0 1 2 1 1 1 1 1 2 4 4 4 2 2 2 2 1 3 3 3 3 2 3 3 4 3 3 4 4 5 7 6 5 4 2 2 3 4 2 2 2 2 2 2 3 4 5 4 4 7 9 8 9 13 16 16 16 16 17 17 17 15 16 17 17 17 17 15
1 1 0 1 4 4 2 1 2 2 1 1 2 0 1 1 2 1 1 1 0 1 2 1 0 2 2 1 4 5 4 5 4 3 3 3 1 2 2 1 1 2 3 3 4 3 3 4 5 7 8 8 9 9 6 5 6 9 7 1 3 3 3 3 4 4 4 5 5 8 10 14 16 16 16 16 16 16 17 18 18 16 17 18 17 17 16 14
1 1 2 1 1 2 2 1 2 2 1 2 2 1 2 2 1 2 1 1 1 1 2 2 2 3 2 1 4 4 1 3 5 4 3 3 3 1 2 1 1 1 1 2 2 1 3 5 4 5 9 10 11 13 11 9 9 10 9 4 3 4 3 4 5 5 6 7 7 8 12 15 17 17 17 15 15 16 17 18 17 17 17 18 18 18 16 15
1 1 1 1 1 1 1 2 3 2 1 2 2 1 1 3 1 1 0 0 1 1 2 2 2 4 4 3 4 4 4 4 4 2 1 2 3 1 1 2 2 1 2 3 2 0 4 5 1 1 7 10 12 14 12 9 8 7 6 6 3 5 6 6 7 7 7 6 9 13 16 17 16 15 15 14 14 16 18 17 17 17 19 20 19 18 17 18
1 1 1 1 1 2 1 2 2 1 1 2 1 1 2 3 2 2 1 0 1 2 1 3 1 1 3 3 3 4 6 6 3 1 1 1 2 3 3 1 2 2 3 3 2 1 3 3 2 1 7 11 10 10 7 5 6 6 6 5 2 3 6 7 8 8 8 9 12 16 18 16 12 11 13 14 15 16 15 16 17 19 21 22 20 18 19 21
0 1 1 1 1 2 1 1 1 2 0 0 1 1 1 2 3 2 1 1 2 1 1 3 4 4 1 1 4 6 4 4 4 4 1 2 3 2 2 2 0 1 2 2 1 1 2 1 2 1 7 8 3 4 4 6 7 8 7 5 2 3 4 5 7 7 8 10 13 15 16 13 8 11 14 15 15 15 17 19 20 20 21 21 20 20 21 22
1 1 0 1 1 1 1 0 1 2 0 0 1 2 1 2 3 4 2 2 3 3 0 3 5 3 2 3 6 7 2 2 6 6 3 4 4 2 2 2 3 1 2 1 1 1 2 2 0 1 7 6 4 6 6 6 6 7 8 6 2 3 3 5 6 7 9 12 14 13 11 9 9 13 15 15 16 17 19 20 20 20 21 20 18 20 23 24
1 1 0 2 1 1 1 0 1 2 1 2 3 2 2 3 4 3 3 2 3 2 0 2 4 4 4 5 4 2 2 3 5 4 3 5 5 4 3 2 3 3 2 1 1 0 1 4 3 2 5 4 2 3 9 6 3 4 4 3 2 3 4 6 7 10 11 10 10 9 8 10 13 15 17 18 18 18 17 17 18 20 20 18 17 20 23 23
Wind_Direction
128 126 121 112 105 97 87 71 63 60 58 50 44 41 30 40 75 53 42 29 26 20 0 4 6 352 344 332 318 335 12 42 50 44 48 9 340 339 336 328 327 338 346 342 323 301 301 291 340 299 268 115 349 26 74 16 354 268 258 272 301 356 17 17 5 28 359 88 140 167 180 205 200 174 181 198 235 240 238 231 233 229 233 241 219 146 149 144
134 131 127 119 110 98 79 64 53 46 40 31 27 27 28 39 78 62 39 36 43 49 44 38 31 14 1 348 312 288 322 316 46 42 26 350 347 352 346 340 339 347 354 349 342 332 337 345 349 283 263 156 6 7 189 358 339 285 293 281 347 33 42 27 17 39 11 24 133 164 187 212 213 156 163 225 241 226 234 240 231 232 235 234 223 196 183 175
142 140 137 129 119 100 77 70 52 41 27 13 17 34 42 45 64 54 22 39 41 38 34 26 14 6 1 352 319 252 268 274 43 27 356 350 356 359 353 351 358 8 13 5 356 354 356 353 337 287 278 4 36 338 253 359 336 302 304 295 46 57 70 55 35 53 36 25 147 161 177 214 207 125 159 235 264 240 232 243 235 230 236 234 223 210 200 195
145 149 147 139 128 102 81 68 43 32 22 13 14 46 59 41 28 320 308 312 323 330 345 343 343 349 355 351 329 194 244 261 45 359 345 356 357 359 1 2 11 18 24 9 346 341 331 324 317 300 281 216 91 192 348 20 340 354 332 337 49 38 63 71 51 55 45 13 9 149 163 223 206 169 204 244 269 257 242 244 241 239 244 248 232 211 202 202
143 149 149 142 129 104 72 50 27 21 26 34 38 48 63 32 356 312 304 300 306 309 321 324 327 338 354 3 27 152 251 254 30 349 352 359 355 358 4 8 13 8 4 335 325 312 293 284 263 277 266 254 71 211 36 30 338 352 39 23 41 2 21 87 64 46 36 3 311 168 192 234 179 213 228 240 253 260 286 281 251 262 276 288 277 216 195 200
137 141 141 131 117 94 56 33 19 18 33 50 47 40 47 37 4 331 319 307 312 313 322 326 325 327 360 28 47 106 276 311 12 350 0 1 356 0 5 7 351 349 345 313 309 297 290 275 238 264 283 51 23 19 39 28 322 309 89 68 41 10 19 87 78 44 5 305 207 191 301 319 263 257 241 237 244 254 287 29 289 302 336 324 311 229 198 204
125 128 129 122 105 65 31 16 19 29 38 50 58 57 58 58 43 22 18 359 350 352 356 350 338 323 346 28 23 47 73 60 6 352 5 5 2 5 9 9 351 352 345 321 324 319 321 309 262 339 336 83 35 42 25 354 319 341 91 103 49 22 34 68 76 76 358 310 318 341 313 279 262 271 279 246 247 256 266 266 236 256 293 268 264 237 222 223
115 119 119 110 83 38 15 10 27 46 51 67 79 75 71 70 61 51 48 38 28 20 7 2 3 350 259 320 304 80 76 34 353 355 6 9 16 21 19 16 6 4 0 355 345 325 318 339 15 332 312 67 33 57 11 319 58 36 82 124 110 80 85 92 111 126 275 295 334 297 271 269 269 289 296 263 259 260 261 260 240 235 247 242 243 244 238 235
106 109 104 87 55 25 16 18 36 58 75 86 86 71 61 59 52 46 36 25 10 2 359 0 12 15 135 193 266 283 64 359 349 358 6 14 28 36 35 34 23 19 29 27 1 333 323 4 31 348 46 71 41 59 353 313 45 47 86 133 140 128 117 131 166 152 245 261 292 280 273 274 285 317 282 263 262 268 256 254 247 242 249 247 244 246 244 242
97 98 85 57 29 18 18 24 40 60 92 89 76 49 37 25 10 8 10 16 11 7 10 9 22 29 91 234 263 247 70 354 355 1 6 19 31 41 44 47 37 35 47 43 32 25 30 48 50 38 71 84 72 38 327 322 46 78 111 147 144 150 149 157 202 160 252 263 264 284 283 275 269 63 271 254 160 193 224 242 242 241 248 251 249 245 245 245
87 84 63 38 19 16 16 23 38 48 108 71 49 17 10 1 351 343 343 2 13 11 11 12 39 45 39 263 285 97 67 338 348 6 9 25 36 41 45 45 35 30 41 55 46 30 31 39 29 7 74 113 95 63 40 63 130 162 158 201 176 189 182 179 213 170 267 257 243 295 285 268 217 193 253 236 132 164 219 248 238 239 248 252 251 246 243 243
70 58 45 26 14 13 13 20 25 13 336 303 317 342 341 340 347 345 337 345 356 6 9 10 64 64 36 56 38 57 51 349 307 4 9 27 44 49 53 50 47 42 42 68 53 22 28 359 316 28 45 227 177 89 111 162 216 184 214 256 211 210 195 182 200 148 266 291 20 306 289 256 200 219 247 207 152 172 221 252 243 237 242 247 247 243 239 238
63 37 30 13 3 7 10 14 13 358 338 305 299 310 316 326 343 345 342 337 343 6 15 27 78 94 346 64 53 18 18 16 357 3 8 22 39 48 56 56 62 60 60 76 65 44 57 13 1 80 40 337 138 93 139 173 211 197 227 286 267 236 187 163 178 164 231 334 11 313 305 284 198 214 223 150 162 192 221 247 252 245 234 233 234 230 235 234
115 66 29 8 346 353 2 3 358 348 334 318 305 301 307 319 338 344 341 337 343 0 18 46 80 94 49 78 93 325 351 20 21 6 14 27 359 8 55 51 59 62 64 76 76 76 73 59 87 99 45 15 100 142 173 179 212 220 223 237 260 304 123 145 149 185 221 99 35 310 291 302 261 207 186 154 181 203 247 268 271 269 250 232 226 224 235 235
149 160 68 6 322 331 349 345 336 338 334 334 325 310 313 322 335 332 320 328 340 11 25 50 68 91 100 98 154 3 10 16 15 1 14 29 360 332 23 28 45 58 62 71 79 83 74 61 106 113 89 62 147 185 219 201 211 243 287 283 284 336 37 140 132 217 291 102 176 269 276 289 318 207 160 165 197 211 257 278 278 276 266 254 244 236 245 249
183 173 56 358 302 312 337 329 313 315 322 328 335 323 328 342 348 336 310 302 308 359 20 40 35 344 149 104 142 120 35 11 357 352 360 16 9 358 335 302 315 36 71 78 88 86 58 71 41 101 162 196 207 261 285 240 206 191 281 322 323 317 318 54 117 154 284 341 211 227 270 286 300 278 170 186 206 224 261 279 280 277 269 262 260 256 261 265
197 179 41 321 294 306 321 321 305 291 300 307 311 310 325 331 338 341 318 276 283 319 14 30 24 339 86 98 146 149 27 346 343 346 345 352 355 350 327 289 256 261 225 215 208 195 253 129 142 250 213 226 251 289 299 290 291 345 317 318 314 304 311 299 161 135 181 256 249 237 253 271 273 279 279 247 221 239 266 285 290 287 275 264 262 264 267 272
179 135 37 318 303 313 308 314 302 279 284 286 286 296 309 306 310 345 346 282 269 250 179 36 4 220 103 104 166 359 353 320 335 348 342 340 328 317 325 309 282 272 247 231 214 216 305 210 202 252 219 209 247 294 311 334 330 316 312 313 315 304 296 293 299 94 301 274 273 267 261 270 277 286 292 289 275 266 273 291 300 296 281 267 263 264 270 280
137 77 15 323 311 318 305 306 300 279 277 274 284 302 302 298 276 13 28 10 310 227 205 33 356 242 91 76 14 338 318 309 333 356 348 340 328 290 281 277 270 270 265 250 192 30 325 265 229 263 277 202 32 359 314 339 331 303 302 297 299 296 289 295 324 87 10 300 274 273 273 280 287 292 296 300 298 284 280 287 292 288 279 263 262 272 289 297
118 59 357 331 320 320 306 305 307 291 277 270 284 303 293 283 237 183 41 32 36 5 345 29 0 321 88 45 357 324 296 280 305 9 357 344 335 289 251 250 252 246 260 293 337 40 326 281 265 301 2 43 70 63 33 12 338 286 280 274 276 280 281 288 324 102 65 299 275 280 287 287 289 293 298 302 301 270 266 258 246 223 170 189 274 319 326 318
94 46 10 346 330 322 308 307 314 306 291 272 269 290 303 343 311 231 58 47 48 356 355 30 348 356 50 11 356 342 298 239 232 37 6 350 316 275 235 239 263 256 110 321 289 26 242 272 312 62 50 78 101 90 96 125 276 265 268 276 276 273 278 296 63 113 125 289 284 293 297 289 288 296 304 297 227 206 203 158 131 117 118 118 80 24 353 338
63 34 11 347 337 337 325 325 338 341 345 326 236 300 29 12 334 108 41 144 82 0 324 17 292 75 71 339 4 354 284 236 207 106 10 347 286 273 355 299 276 299 42 248 257 265 256 264 74 84 89 96 101 105 130 228 247 253 259 268 276 294 305 311 108 135 177 237 289 309 312 289 287 299 310 229 165 135 104 106 103 93 116 114 84 48 10 359
37 20 1 346 346 355 355 7 23 32 53 72 66 66 62 66 141 146 289 267 100 15 313 6 301 35 87 156 9 336 280 290 269 65 11 343 295 1 328 303 294 299 284 266 284 294 290 48 89 101 123 127 124 136 182 247 243 240 246 264 278 319 337 294 144 179 268 260 289 306 294 278 282 289 156 132 129 116 127 215 232 256 239 98 54 4 303 329
19 5 353 348 346 349 359 18 41 53 64 69 68 77 91 77 95 279 285 269 127 117 34 3 305 352 14 9 342 315 297 1 293 15 6 346 338 309 302 348 312 279 256 336 299 277 283 69 96 125 148 207 212 183 213 252 271 242 226 246 281 304 319 296 306 309 289 264 289 305 290 271 248 200 170 142 145 155 169 198 206 221 228 234 263 260 251 282
2 355 353 348 336 329 315 325 34 33 42 54 69 68 65 58 9 305 276 260 217 139 153 223 196 15 357 309 319 322 313 39 347 0 3 357 352 307 303 52 281 279 77 72 285 273 279 80 133 159 178 228 229 236 227 240 287 270 219 232 303 316 309 298 310 317 304 277 116 331 312 310 151 199 192 148 171 175 159 184 190 186 192 204 232 306 12 24
353 358 2 356 350 336 281 235 339 316 325 9 82 62 56 46 20 344 283 258 224 135 172 193 179 338 18 335 331 334 254 183 74 24 10 9 352 303 310 170 219 340 45 43 286 284 95 111 177 195 209 216 234 258 228 195 275 290 218 44 5 314 296 297 310 315 307 308 41 117 295 288 262 259 175 133 171 165 159 188 185 166 166 173 145 41 43 39
358 9 10 10 10 4 350 332 337 326 320 315 296 1 22 7 2 358 283 255 225 128 342 148 190 300 21 6 318 293 291 357 93 75 28 11 9 242 272 260 230 331 77 299 290 229 124 141 186 206 219 222 244 263 189 177 261 291 105 35 5 285 287 293 300 282 283 308 289 170 233 269 283 287 111 123 188 179 178 191 184 178 153 115 80 58 45 32
6 12 12 14 7 8 18 0 335 330 329 317 285 283 334 318 301 302 279 267 245 15 348 92 156 312 336 286 284 290 332 339 291 87 60 344 348 220 245 281 297 298 139 251 279 286 115 176 192 190 217 239 258 25 119 191 251 321 110 324 308 285 281 275 279 273 278 306 279 168 190 259 286 297 118 141 191 166 173 171 162 172 93 73 54 42 30 23
4 4 6 2 352 355 4 354 336 318 321 320 278 284 319 303 276 264 252 268 314 92 6 41 183 315 310 256 217 217 330 326 321 24 131 241 336 247 261 320 305 290 211 228 262 300 74 83 208 205 228 259 20 53 59 226 242 73 111 274 266 246 256 251 259 269 264 271 257 147 165 265 298 300 132 155 149 96 114 123 88 61 56 47 33 26 16 12
0 358 355 349 341 334 340 345 346 334 324 321 311 313 311 293 264 247 247 271 16 84 278 279 256 322 331 308 239 161 259 266 350 323 231 194 188 191 212 355 263 259 237 223 249 250 102 67 312 242 264 343 29 51 51 323 31 24 262 266 253 222 219 237 243 255 251 240 182 103 116 292 300 312 68 104 106 64 57 72 58 42 39 32 23 17 9 4
1 355 348 344 337 328 333 335 338 338 331 327 332 318 299 271 246 261 268 261 64 11 260 254 354 347 358 344 303 348 330 319 357 325 286 196 225 211 201 235 240 258 244 218 225 195 149 184 191 95 342 343 318 210 151 133 130 279 267 276 278 240 206 222 203 196 245 256 106 102 4 281 262 265 13 57 77 63 54 59 43 25 21 18 12 11 9 5
3 357 351 350 346 344 350 348 334 333 340 342 331 309 284 262 246 262 330 301 263 344 351 28 16 359 0 332 254 328 340 310 4 352 331 319 280 256 269 308 340 301 279 309 292 214 182 169 123 89 43 227 242 232 178 171 191 232 256 279 295 294 274 262 248 242 266 169 118 110 17 278 253 268 330 31 66 69 65 59 39 22 14 8 6 7 7 4
3 360 355 355 358 1 5 350 339 343 356 344 319 284 283 285 286 48 31 330 328 8 1 303 307 322 320 293 269 347 315 261 4 4 238 279 269 268 51 25 348 298 290 327 324 295 265 112 138 157 162 185 235 257 233 172 189 227 274 305 299 311 308 292 292 286 288 67 131 108 18 277 265 292 43 65 78 83 75 62 43 29 15 4 2 1 2 2
1 2 355 357 4 6 1 344 343 355 352 329 290 280 285 283 316 79 302 336 11 350 320 309 305 272 249 296 16 9 275 209 6 315 255 235 264 282 53 61 1 285 272 295 314 308 285 263 174 184 109 143 221 266 346 327 285 269 351 316 280 295 296 291 306 300 296 308 191 144 278 274 280 99 106 101 101 98 80 70 46 26 16 7 3 360 359 358
356 355 351 1 6 2 358 342 340 353 337 299 276 284 288 298 337 8 306 1 23 328 289 171 273 271 224 132 79 33 334 131 14 311 268 253 300 317 357 54 41 295 282 295 346 330 264 256 99 88 62 158 218 72 33 305 286 144 35 271 260 312 304 283 292 294 299 305 270 197 224 270 281 123 120 120 122 96 49 35 19 10 13 12 7 2 357 354
348 346 347 6 6 357 353 342 340 346 314 283 279 290 299 340 351 1 5 357 3 327 301 240 214 282 293 122 129 106 151 247 321 324 276 220 297 338 38 53 41 355 334 314 327 339 283 264 120 143 195 131 22 28 29 312 320 132 255 283 321 344 315 288 285 281 281 279 259 218 232 270 289 153 125 120 110 54 22 16 9 2 5 7 3 359 355 351
344 349 355 7 359 345 340 342 343 334 281 267 275 301 353 68 1 4 28 354 314 307 303 303 17 332 323 319 48 77 52 259 286 315 311 272 295 71 84 70 42 1 24 345 303 34 315 289 165 166 206 110 55 323 233 345 336 285 280 338 342 289 266 276 280 291 281 272 269 254 254 281 301 241 147 96 40 18 10 8 2 357 359 358 356 353 350 347
327 331 356 5 350 337 337 348 347 302 256 257 261 277 49 83 21 17 22 342 292 255 293 307 351 15 343 317 333 62 14 323 336 317 314 308 208 81 42 58 65 15 27 340 291 48 319 289 233 129 69 122 147 256 228 157 331 303 307 322 307 280 261 238 257 301 296 283 287 278 258 266 277 267 48 31 18 5 360 0 355 353 355 353 351 348 347 345
296 277 251 359 345 338 346 345 323 268 248 266 281 289 61 38 68 58 13 339 290 289 299 317 4 357 334 318 326 23 43 319 330 327 325 325 347 73 39 11 77 74 13 313 301 346 302 274 290 71 94 125 178 225 239 155 141 210 272 254 195 283 281 274 290 307 293 285 290 284 247 249 275 10 26 18 11 358 352 354 350 351 353 350 348 345 343 341
307 266 258 2 345 346 349 311 272 255 257 291 320 1 44 39 92 88 29 353 317 317 330 347 337 294 303 313 306 325 295 282 302 302 301 337 332 58 63 13 26 110 38 280 285 299 256 243 276 9 129 228 230 201 330 16 119 187 231 220 203 223 254 285 272 253 267 278 288 288 275 270 41 46 25 7 360 354 352 352 348 349 350 347 345 344 341 335
312 255 6 357 344 339 305 291 298 322 289 300 6 49 49 5 67 94 81 12 332 43 358 325 305 296 316 313 282 318 295 279 275 274 272 259 306 23 58 12 1 53 243 247 249 289 287 257 277 284 266 275 326 66 20 10 15 307 268 267 287 272 276 287 270 208 233 270 288 295 285 289 316 331 22 5 348 351 358 354 349 347 345 343 343 342 337 332
269 248 359 349 346 344 294 281 70 351 294 318 7 44 29 329 322 63 106 153 278 212 193 283 282 278 289 297 308 334 296 286 275 258 268 261 329 14 47 3 347 340 284 292 311 33 342 281 276 278 274 285 73 79 38 10 356 316 282 290 319 295 268 275 282 322 330 264 295 286 273 282 302 222 12 351 346 357 4 356 348 343 341 342 342 338 333 330
267 285 23 2 360 352 306 281 114 251 6 44 347 80 30 329 327 39 178 191 214 228 230 243 252 269 280 330 321 304 287 280 263 254 278 287 3 42 49 359 336 301 277 293 23 78 291 256 265 278 275 156 104 103 70 21 296 238 236 233 285 303 300 286 293 327 309 272 265 267 269 272 121 126 343 342 353 2 360 353 345 339 340 341 337 333 331 330
346 338 27 7 5 347 299 334 19 344 88 111 240 132 71 296 276 307 252 204 202 259 262 269 286 282 318 1 297 278 315 289 262 272 316 311 25 71 53 10 338 325 358 351 0 22 279 264 294 301 295 289 135 131 111 174 251 278 268 131 112 60 73 315 283 281 270 257 245 260 274 279 101 340 332 338 352 355 350 349 343 338 338 336 334 332 331 332
334 266 153 13 20 33 7 1 349 347 67 233 261 137 207 210 153 332 317 329 309 295 295 322 28 311 295 319 269 259 256 253 259 26 10 309 31 99 70 11 327 342 34 17 337 317 277 288 301 295 299 301 302 317 337 304 313 312 290 135 135 195 187 239 274 254 253 258 241 254 271 289 309 324 328 334 345 347 343 341 338 337 336 334 332 329 330 337
286 336 64 8 39 55 78 54 335 327 15 304 286 38 312 255 121 112 285 289 82 293 287 283 4 276 243 252 276 266 241 225 240 307 327 301 327 89 89 7 336 35 38 351 309 290 276 282 265 260 269 279 294 306 313 312 302 293 290 251 157 180 205 244 260 262 298 311 276 267 290 304 311 320 326 334 344 342 337 335 334 334 335 333 328 329 336 342
285 345 12 334 44 56 91 88 4 354 20 317 319 56 337 306 104 140 218 289 57 283 268 227 217 251 234 308 297 288 285 224 230 263 300 294 306 71 143 174 128 66 355 284 269 264 262 265 258 257 260 267 285 293 296 296 284 283 295 285 188 162 167 210 237 275 319 316 284 298 318 312 309 318 326 336 342 336 332 333 332 333 333 331 328 332 338 338
1 44 37 317 307 33 44 33 10 13 31 330 326 60 315 299 321 323 283 85 165 232 257 221 215 244 258 311 320 311 316 293 243 227 315 309 314 313 201 170 140 179 248 214 177 228 268 263 220 189 267 272 276 278 282 283 272 270 279 272 226 169 172 201 238 275 303 293 284 303 313 305 304 321 337 346 342 333 331 332 332 333 332 330 331 332 333 336
44 91 94 290 343 49 33 340 336 329 22 351 306 165 301 304 328 356 47 215 216 163 232 279 343 341 278 290 295 295 318 325 303 273 59 328 295 289 277 240 157 187 230 203 162 153 273 265 131 146 282 282 271 268 268 249 253 260 246 243 239 196 206 226 252 280 295 287 288 300 302 297 310 347 354 344 334 330 331 332 333 334 332 330 329 330 333 338
336 86 98 192 103 77 40 293 289 269 176 314 273 118 289 300 338 8 39 290 308 84 171 295 358 17 321 262 261 270 314 345 296 276 285 281 272 261 267 282 99 161 214 213 163 167 243 285 88 150 284 289 240 201 215 229 264 270 228 204 247 252 248 268 280 298 309 299 298 301 297 296 330 359 345 332 334 335 334 334 334 332 329 325 325 329 334 336
58 50 73 230 133 91 311 220 265 290 258 118 354 41 12 342 5 353 359 40 1 10 83 321 341 335 237 223 252 265 313 345 288 283 284 282 289 301 291 323 347 301 223 188 171 195 225 269 2 249 288 299 163 182 245 262 278 269 226 205 251 268 281 304 307 317 318 308 304 303 300 310 335 340 330 329 337 337 334 335 333 329 325 323 328 334 334 333
133 86 70 292 290 122 331 321 243 301 8 44 22 29 7 16 28 343 332 75 72 42 9 298 309 295 259 248 260 303 18 344 305 310 305 279 278 287 291 325 342 305 281 209 200 227 290 288 297 300 299 299 172 266 303 296 269 257 205 176 342 330 330 330 324 319 315 311 310 308 315 327 331 332 330 331 335 336 335 335 329 323 322 326 336 339 333 331